Location: Villingen
(48.0639°N, 8.4609°E)
Time: 16:56:14
(UTC+02:00)

ISS - Pass Details

Date: 27 March 2017
Orbit: 401 x 409 km, 51.6° (Epoch: 28 April)

Event Time Altitude Azimuth Distance (km) Brightness Sun altitude
Rises 21:36:23 0° 220° (SW) 2,310 0.2 -18.0°
Reaches altitude 10° 21:38:34 10° 211° (SSW) 1,456 -1.0 -18.3°
Enters shadow 21:39:52 20° 197° (SSW) 1,004 -2.0 -18.5°
